15min,UCC,Peter Sinks,270,11/1/2014 00:00:00,24.5,0.1059,23.5,25.3,-0,0.0,1.1,32,10.7700,2361,12.2
15min,UCC,Peter Sinks,270,11/1/2014 00:15:00,24.3,0.1059,23.6,25.0,-0,0.0,0.7,303,0.0210,2359,12.4
15min,UCC,Peter Sinks,270,11/1/2014 00:30:00,24.4,0.1170,23.2,25.6,-0,0.1,1.3,33,13.3900,2357,12.2
15min,UCC,Peter Sinks,270,11/1/2014 00:45:00,25.8,0.1115,25.3,26.4,-0,0.5,2.2,243,59.3300,2357,12.4
15min,UCC,Peter Sinks,270,11/1/2014 01:00:00,26.2,0.1115,25.5,26.8,-0,0.6,2.2,224,72.4600,2356,12.4
15min,UCC,Peter Sinks,270,11/1/2014 01:15:00,26.9,0.1282,26.0,28.2,-0,0.6,2.2,74,57.3200,2356,12.3
15min,UCC,Peter Sinks,270,11/1/2014 01:30:00,27.2,0.1282,26.7,28.2,-0,0.9,3.1,263,66.1100,2354,12.3
15min,UCC,Peter Sinks,270,11/1/2014 01:45:00,27.9,0.1207,27.0,28.4,-0,0.5,1.5,112,71.5700,2353,12.3
15min,UCC,Peter Sinks,270,11/1/2014 02:00:00,28.1,0.1226,27.4,28.8,-0,0.6,2.0,282,66.1700,2352,12.3
15min,UCC,Peter Sinks,270,11/1/2014 02:15:00,28.4,0.1115,27.7,29.2,-0,0.5,2.2,197,50.0600,2351,12.2
15min,UCC,Peter Sinks,270,11/1/2014 02:30:00,27.8,0.0913,27.2,29.1,-0,0.4,2.0,305,47.3500,2350,12.3
15min,UCC,Peter Sinks,270,11/1/2014 02:45:00,27.3,0.1115,26.6,27.8,-0,0.1,2.0,348,40.0400,2348,12.3
15min,UCC,Peter Sinks,270,11/1/2014 03:00:00,27.2,0.1023,26.5,27.8,-0,0.3,1.8,258,52.0700,2347,12.3
15min,UCC,Peter Sinks,270,11/1/2014 03:15:00,27.6,0.1152,26.9,28.2,-0,0.4,2.2,282,58.6800,2347,12.3
15min,UCC,Peter Sinks,270,11/1/2014 03:30:00,27.9,0.0968,27.5,28.2,-0,0.1,1.1,78,32.5500,2347,12.3
15min,UCC,Peter Sinks,270,11/1/2014 03:45:00,32.2,0.2271,27.7,43.7,-0,1.5,7.0,301,45.2000,2349,12.1
15min,UCC,Peter Sinks,270,11/1/2014 04:00:00,44.0,0.0926,40.4,45.4,-0,4.2,7.7,306,11.1300,2354,12.1
15min,UCC,Peter Sinks,270,11/1/2014 04:15:00,39.2,0.0236,35.8,44.0,-0,1.0,3.9,291,64.1000,2346,12.3
15min,UCC,Peter Sinks,270,11/1/2014 04:30:00,35.0,0.0572,33.5,37.4,-0,0.2,1.3,31,14.4900,2346,12.3
15min,UCC,Peter Sinks,270,11/1/2014 04:45:00,40.8,0.1066,33.3,45.3,-0,2.3,5.7,307,24.7100,2350,12.2
15min,UCC,Peter Sinks,270,11/1/2014 05:00:00,42.1,0.0709,38.8,44.9,-0,2.8,6.6,331,32.9000,2348,12.2
15min,UCC,Peter Sinks,270,11/1/2014 05:15:00,41.3,0.0538,38.4,44.9,-0,1.6,7.0,322,43.8900,2346,12.3
15min,UCC,Peter Sinks,270,11/1/2014 05:30:00,41.1,0.0572,39.2,43.1,-0,2.0,5.3,311,42.5600,2347,12.3
15min,UCC,Peter Sinks,270,11/1/2014 05:45:00,40.2,0.0435,38.0,43.3,-0,1.2,4.2,330,36.5700,2346,12.2
15min,UCC,Peter Sinks,270,11/1/2014 06:00:00,40.7,0.0681,37.0,44.1,-0,1.5,6.8,328,32.4500,2347,12.1
15min,UCC,Peter Sinks,270,11/1/2014 06:15:00,40.7,0.0424,37.1,43.7,-0,2.0,7.0,328,45.5400,2347,12.3
15min,UCC,Peter Sinks,270,11/1/2014 06:30:00,37.7,0.0337,33.7,41.4,-0,0.8,3.7,145,59.0700,2344,12.3
15min,UCC,Peter Sinks,270,11/1/2014 06:45:00,38.0,0.0670,34.7,42.1,0,1.0,3.1,205,55.0500,2346,12.3
15min,UCC,Peter Sinks,270,11/1/2014 07:00:00,35.0,0.0330,32.1,39.3,1,0.5,2.0,153,58.9000,2344,12.3
15min,UCC,Peter Sinks,270,11/1/2014 07:15:00,31.8,0.0450,28.5,34.3,4,0.3,2.2,339,29.6800,2343,12.3
15min,UCC,Peter Sinks,270,11/1/2014 07:30:00,33.7,0.1279,28.2,38.5,9,0.7,2.8,351,26.2300,2864,12.2
15min,UCC,Peter Sinks,270,11/1/2014 07:45:00,41.3,0.1339,32.5,44.5,18,1.9,5.7,327,51.6100,4636,12.2
15min,UCC,Peter Sinks,270,11/1/2014 08:00:00,42.9,0.0616,40.5,44.2,30,1.6,5.0,339,44.3900,4636,12.2
15min,UCC,Peter Sinks,270,11/1/2014 08:15:00,44.5,0.0718,42.1,45.7,164,3.4,9.9,318,34.9600,4645,12.2
15min,UCC,Peter Sinks,270,11/1/2014 08:30:00,46.1,0.0370,45.4,46.8,205,3.7,11.8,310,42.0900,4658,12.0
15min,UCC,Peter Sinks,270,11/1/2014 08:45:00,47.1,0.0263,46.6,47.7,246,4.2,12.7,342,54.2700,4688,12.2
15min,UCC,Peter Sinks,270,11/1/2014 09:00:00,47.8,0.0263,47.4,48.6,286,5.3,15.8,309,49.8100,4747,12.4
15min,UCC,Peter Sinks,270,11/1/2014 09:15:00,48.5,0.0238,48.0,49.2,324,5.4,12.9,296,29.8100,4838,12.7
15min,UCC,Peter Sinks,270,11/1/2014 09:30:00,48.8,0.0250,48.3,49.7,360,5.7,12.5,282,38.1000,4951,13.0
15min,UCC,Peter Sinks,270,11/1/2014 09:45:00,48.9,0.0245,48.3,49.9,394,5.4,14.2,263,36.6200,4994,13.3
15min,UCC,Peter Sinks,270,11/1/2014 10:00:00,49.7,0.0311,48.5,51.6,426,4.0,11.8,287,57.3300,4980,13.2
15min,UCC,Peter Sinks,270,11/1/2014 10:15:00,50.4,0.0387,49.5,51.3,462,7.0,19.5,303,31.0300,4967,13.1
15min,UCC,Peter Sinks,270,11/1/2014 10:30:00,50.8,0.0655,49.6,52.2,402,7.0,20.4,273,31.4000,4954,13.1
15min,UCC,Peter Sinks,270,11/1/2014 10:45:00,48.8,0.0655,48.3,50.6,168,4.0,11.2,259,31.0400,4908,12.9
15min,UCC,Peter Sinks,270,11/1/2014 11:00:00,48.1,0.0580,47.8,48.6,152,2.9,7.7,271,52.3100,4873,12.8
15min,UCC,Peter Sinks,270,11/1/2014 11:15:00,48.9,0.0678,48.3,50.2,127,5.0,26.5,312,52.4000,4856,12.8
15min,UCC,Peter Sinks,270,11/1/2014 11:30:00,48.2,0.0512,48.0,48.6,63,2.4,5.7,316,35.6400,4811,12.7
15min,UCC,Peter Sinks,270,11/1/2014 11:45:00,48.4,0.0726,46.5,49.7,71,6.7,12.7,359,22.0800,4789,12.6
15min,UCC,Peter Sinks,270,11/1/2014 12:00:00,45.8,0.0768,44.2,47.2,22,6.4,18.2,4,24.3400,4753,12.5
15min,UCC,Peter Sinks,270,11/1/2014 12:15:00,44.4,0.0763,43.2,45.7,24,7.5,15.6,326,20.5600,4741,12.5
15min,UCC,Peter Sinks,270,11/1/2014 12:30:00,44.7,0.0451,43.1,46.1,371,7.2,18.0,304,18.8000,4922,12.5
15min,UCC,Peter Sinks,270,11/1/2014 12:45:00,46.2,0.0311,45.7,47.0,313,5.5,10.5,311,16.2100,4947,12.9
15min,UCC,Peter Sinks,270,11/1/2014 13:00:00,46.1,0.0411,45.3,46.9,125,6.4,12.9,329,37.2800,4854,12.8
15min,UCC,Peter Sinks,270,11/1/2014 13:15:00,42.9,0.0507,42.1,46.7,135,9.7,20.4,33,30.9400,4819,12.7
15min,UCC,Peter Sinks,270,11/1/2014 13:30:00,40.5,0.0340,38.7,42.7,108,13.9,25.0,4,18.8000,4807,12.7
15min,UCC,Peter Sinks,270,11/1/2014 13:45:00,38.2,0.0310,37.6,38.8,75,11.2,18.2,14,19.5200,4761,12.4
15min,UCC,Peter Sinks,270,11/1/2014 14:00:00,37.3,0.0265,36.5,37.7,105,13.7,25.4,5,18.2200,4751,12.6
15min,UCC,Peter Sinks,270,11/1/2014 14:15:00,36.1,0.0263,35.4,36.6,77,14.6,27.0,3,19.2800,4731,12.5
15min,UCC,Peter Sinks,270,11/1/2014 14:30:00,34.5,0.0395,33.9,35.5,58,11.2,25.0,18,23.4600,4716,12.5
15min,UCC,Peter Sinks,270,11/1/2014 14:45:00,34.2,0.0436,33.9,34.5,86,10.1,21.7,28,19.6500,4716,12.5
15min,UCC,Peter Sinks,270,11/1/2014 15:00:00,34.5,0.0395,34.2,34.7,61,11.2,21.1,26,22.9500,4704,12.4
15min,UCC,Peter Sinks,270,11/1/2014 15:15:00,34.1,0.0386,33.8,34.4,64,11.8,24.8,31,18.2300,4695,12.4
15min,UCC,Peter Sinks,270,11/1/2014 15:30:00,33.2,0.0387,32.5,33.9,38,11.6,28.3,21,24.6600,4675,12.4
15min,UCC,Peter Sinks,270,11/1/2014 15:45:00,32.3,0.0506,31.8,32.5,42,10.1,23.7,7,21.2600,4665,12.3
15min,UCC,Peter Sinks,270,11/1/2014 16:00:00,33.3,0.0574,31.9,34.1,31,13.3,28.1,3,21.8000,4651,12.3
15min,UCC,Peter Sinks,270,11/1/2014 16:15:00,34.4,0.0465,33.9,34.8,64,14.8,29.8,0,20.4200,4645,12.3
15min,UCC,Peter Sinks,270,11/1/2014 16:30:00,34.5,0.0455,33.8,35.0,91,12.5,26.5,12,23.4300,4652,12.2
15min,UCC,Peter Sinks,270,11/1/2014 16:45:00,34.4,0.0568,34.1,34.7,47,10.5,20.8,5,17.9100,4647,12.3
15min,UCC,Peter Sinks,270,11/1/2014 17:00:00,34.8,0.0624,34.5,35.0,20,9.9,19.1,12,17.1500,4640,12.3
15min,UCC,Peter Sinks,270,11/1/2014 17:15:00,34.7,0.0550,34.1,35.1,17,9.9,26.5,17,19.4500,4635,12.2
15min,UCC,Peter Sinks,270,11/1/2014 17:30:00,34.4,0.0572,34.0,34.8,10,9.7,18.2,7,21.1900,3778,12.1
15min,UCC,Peter Sinks,270,11/1/2014 17:45:00,34.9,0.0510,34.5,35.3,0,10.4,23.0,14,24.0800,2370,12.3
15min,UCC,Peter Sinks,270,11/1/2014 18:00:00,34.9,0.0499,34.5,35.4,0,11.6,25.0,4,18.4300,2377,12.2
15min,UCC,Peter Sinks,270,11/1/2014 18:15:00,34.8,0.0510,34.5,35.3,-0,9.2,20.2,7,21.4100,2366,12.3
15min,UCC,Peter Sinks,270,11/1/2014 18:30:00,34.5,0.0499,34.2,34.9,-0,8.4,16.4,8,16.6900,2360,12.3
15min,UCC,Peter Sinks,270,11/1/2014 18:45:00,34.6,0.0591,34.1,35.0,-0,8.8,20.4,10,24.2100,2362,12.2
15min,UCC,Peter Sinks,270,11/1/2014 19:00:00,34.5,0.0499,34.1,34.9,-0,8.3,16.0,3,21.2800,2360,12.3
15min,UCC,Peter Sinks,270,11/1/2014 19:15:00,34.5,0.0465,34.1,34.9,-0,9.7,18.6,1,19.1100,2363,12.2
15min,UCC,Peter Sinks,270,11/1/2014 19:30:00,34.4,0.0583,34.1,34.8,-0,9.0,16.4,9,20.3800,2361,12.3
15min,UCC,Peter Sinks,270,11/1/2014 19:45:00,34.5,0.0510,34.3,34.9,-0,9.7,20.0,6,19.9600,2363,12.3
15min,UCC,Peter Sinks,270,11/1/2014 20:00:00,34.7,0.0580,34.5,35.0,-0,11.7,23.0,2,18.6600,2370,12.3
15min,UCC,Peter Sinks,270,11/1/2014 20:15:00,34.7,0.0580,34.4,35.1,-0,13.0,23.7,359,19.7700,2379,12.3
15min,UCC,Peter Sinks,270,11/1/2014 20:30:00,34.6,0.0499,34.2,35.0,-0,9.7,21.3,8,21.6700,2364,12.3
15min,UCC,Peter Sinks,270,11/1/2014 20:45:00,34.6,0.0499,34.2,34.9,-0,9.9,22.6,5,23.4400,2364,12.2
15min,UCC,Peter Sinks,270,11/1/2014 21:00:00,34.6,0.0499,34.4,34.8,-0,10.7,19.5,0,19.4500,2366,12.3
15min,UCC,Peter Sinks,270,11/1/2014 21:15:00,34.6,0.0499,34.4,34.9,-0,10.1,23.7,5,19.4300,2363,12.3
15min,UCC,Peter Sinks,270,11/1/2014 21:30:00,34.4,0.0535,34.2,34.7,-0,8.8,20.4,0,18.8800,2357,12.1
15min,UCC,Peter Sinks,270,11/1/2014 21:45:00,34.2,0.0580,34.1,34.4,-0,8.4,18.0,11,27.2400,2358,12.3
15min,UCC,Peter Sinks,270,11/1/2014 22:00:00,34.0,0.0435,33.7,34.2,-0,8.2,18.6,6,23.5100,2356,12.3
15min,UCC,Peter Sinks,270,11/1/2014 22:15:00,33.6,0.0499,33.5,33.8,-0,7.8,20.8,9,29.7100,2355,12.3
15min,UCC,Peter Sinks,270,11/1/2014 22:30:00,33.0,0.0451,32.8,33.5,-0,11.1,27.2,4,23.1100,2366,12.3
15min,UCC,Peter Sinks,270,11/1/2014 22:45:00,32.4,0.0492,32.2,32.8,-0,11.6,24.3,8,21.4000,2369,12.3
15min,UCC,Peter Sinks,270,11/1/2014 23:00:00,32.0,0.0618,31.7,32.3,-0,8.4,19.5,5,25.9400,2357,12.2
15min,UCC,Peter Sinks,270,11/1/2014 23:15:00,31.6,0.0493,31.4,31.9,-0,9.7,20.6,5,21.1400,2359,12.3
15min,UCC,Peter Sinks,270,11/1/2014 23:30:00,31.5,0.0538,31.3,31.6,-0,10.3,18.6,12,18.5300,2363,12.3
15min,UCC,Peter Sinks,270,11/1/2014 23:45:00,31.2,0.0585,31.0,31.4,-0,8.4,18.0,11,20.5800,2354,12.3
15min,UCC,Peter Sinks,270,11/2/2014 00:00:00,30.7,0.0726,30.5,31.0,-0,8.0,14.2,11,24.3900,2350,12.1
15min,UCC,Peter Sinks,270,11/2/2014 00:15:00,30.4,0.0493,30.2,30.6,-0,6.0,10.5,13,22.0900,2345,12.3
15min,UCC,Peter Sinks,270,11/2/2014 00:30:00,29.8,0.0585,29.2,30.3,-0,7.4,15.1,8,22.2700,2348,12.3
15min,UCC,Peter Sinks,270,11/2/2014 00:45:00,28.6,0.0645,28.4,29.2,-0,8.0,20.2,1,23.2000,2349,12.3
15min,UCC,Peter Sinks,270,11/2/2014 01:00:00,28.3,0.0968,28.2,28.4,-0,7.7,16.4,23,23.1100,2348,12.3
15min,UCC,Peter Sinks,270,11/2/2014 01:15:00,28.4,0.0896,28.2,28.7,-0,7.9,17.3,19,23.6400,2349,12.3
15min,UCC,Peter Sinks,270,11/2/2014 01:30:00,28.7,0.0627,28.5,28.9,-0,6.3,13.6,28,24.9700,2345,12.3
15min,UCC,Peter Sinks,270,11/2/2014 01:45:00,28.7,0.0624,28.6,28.8,-0,4.4,11.2,21,23.5000,2342,12.3
15min,UCC,Peter Sinks,270,11/2/2014 02:00:00,28.6,0.0737,28.4,28.8,-0,7.0,14.0,11,17.5700,2343,12.3
15min,UCC,Peter Sinks,270,11/2/2014 02:15:00,28.6,0.0634,28.5,28.8,-0,6.8,12.7,10,22.3800,2342,12.1
15min,UCC,Peter Sinks,270,11/2/2014 02:30:00,28.3,0.0842,28.1,28.6,-0,7.3,14.5,357,18.0100,2342,12.3
15min,UCC,Peter Sinks,270,11/2/2014 02:45:00,28.1,0.0634,27.8,28.3,-0,8.1,13.4,355,16.7800,2344,12.3
15min,UCC,Peter Sinks,270,11/2/2014 03:00:00,27.7,0.0869,27.5,28.0,-0,6.3,12.5,6,20.3300,2341,12.3
15min,UCC,Peter Sinks,270,11/2/2014 03:15:00,27.5,0.0762,27.2,27.6,-0,5.3,10.3,3,19.0500,2339,12.3
15min,UCC,Peter Sinks,270,11/2/2014 03:30:00,27.5,0.0818,27.3,27.7,-0,4.6,8.1,9,19.9500,2340,12.3
15min,UCC,Peter Sinks,270,11/2/2014 03:45:00,27.5,0.0879,27.4,27.7,-0,5.7,9.4,1,17.1300,2339,12.1
15min,UCC,Peter Sinks,270,11/2/2014 04:00:00,27.4,0.0737,27.3,27.5,-0,6.7,12.7,1,16.9600,2339,12.1
15min,UCC,Peter Sinks,270,11/2/2014 04:15:00,27.4,0.0829,27.2,27.7,-0,6.2,12.3,2,17.9000,2339,12.2
15min,UCC,Peter Sinks,270,11/2/2014 04:30:00,27.6,0.0777,27.2,27.9,-0,6.4,11.8,1,18.9400,2340,12.2
15min,UCC,Peter Sinks,270,11/2/2014 04:45:00,27.4,0.0829,27.0,27.7,-0,7.1,11.6,359,15.3500,2338,12.1
15min,UCC,Peter Sinks,270,11/2/2014 05:00:00,27.2,0.0954,27.0,27.4,-0,4.0,7.2,4,20.6500,2338,12.2
15min,UCC,Peter Sinks,270,11/2/2014 05:15:00,27.2,0.0911,27.0,27.4,-0,4.1,7.5,13,19.2100,2337,12.2
15min,UCC,Peter Sinks,270,11/2/2014 05:30:00,27.0,0.0804,26.8,27.2,-0,4.0,7.2,21,17.3900,2337,12.2
15min,UCC,Peter Sinks,270,11/2/2014 05:45:00,27.0,0.0762,26.8,27.2,-0,4.7,8.8,16,18.5700,2337,12.2
15min,UCC,Peter Sinks,270,11/2/2014 06:00:00,26.9,0.0718,26.7,27.1,-0,5.2,9.4,4,17.3000,2336,12.1
15min,UCC,Peter Sinks,270,11/2/2014 06:15:00,26.5,0.0714,25.9,26.8,-0,3.9,7.7,12,16.5300,2336,12.2
15min,UCC,Peter Sinks,270,11/2/2014 06:30:00,26.0,0.0954,25.8,26.3,-0,4.6,9.0,13,16.5200,2336,12.1
15min,UCC,Peter Sinks,270,11/2/2014 06:45:00,25.7,0.0818,25.2,26.0,0,4.9,9.4,16,16.7500,2335,12.2
15min,UCC,Peter Sinks,270,11/2/2014 07:00:00,26.0,0.1097,25.7,26.2,2,5.8,12.5,15,18.0300,2336,12.0
15min,UCC,Peter Sinks,270,11/2/2014 07:15:00,25.8,0.0762,25.4,26.1,6,4.4,7.5,17,17.3800,2334,12.2
15min,UCC,Peter Sinks,270,11/2/2014 07:30:00,26.0,0.0963,25.6,26.3,12,6.1,10.7,0,14.9400,4175,12.2
15min,UCC,Peter Sinks,270,11/2/2014 07:45:00,25.7,0.0818,25.2,25.9,16,5.7,10.3,358,15.9700,4601,12.1
15min,UCC,Peter Sinks,270,11/2/2014 08:00:00,25.8,0.0860,25.5,26.0,20,6.5,11.2,358,16.0800,4601,12.1
15min,UCC,Peter Sinks,270,11/2/2014 08:15:00,26.2,0.0829,25.8,26.6,84,5.7,12.1,2,18.4700,4606,12.2
15min,UCC,Peter Sinks,270,11/2/2014 08:30:00,26.0,0.1042,25.8,26.3,35,4.4,8.8,360,24.6200,4606,12.2
15min,UCC,Peter Sinks,270,11/2/2014 08:45:00,27.4,0.0858,26.1,28.4,238,4.8,10.1,5,24.9200,4630,12.2
15min,UCC,Peter Sinks,270,11/2/2014 09:00:00,27.8,0.0723,27.4,28.7,242,4.6,11.6,2,28.6100,4650,12.3
15min,UCC,Peter Sinks,270,11/2/2014 09:15:00,28.6,0.0591,28.0,29.6,364,4.4,9.6,348,22.7100,4730,12.4
15min,UCC,Peter Sinks,270,11/2/2014 09:30:00,29.0,0.0469,28.2,31.5,377,3.7,9.9,13,28.5000,4842,12.7
15min,UCC,Peter Sinks,270,11/2/2014 09:45:00,28.5,0.0486,27.9,30.1,261,2.8,8.1,20,51.2400,4861,12.9
15min,UCC,Peter Sinks,270,11/2/2014 10:00:00,30.2,0.0265,28.9,33.0,584,3.6,11.8,356,34.7800,5002,13.0
15min,UCC,Peter Sinks,270,11/2/2014 10:15:00,30.5,0.0294,29.3,32.1,533,4.4,9.2,348,37.6900,4986,13.3
15min,UCC,Peter Sinks,270,11/2/2014 10:30:00,29.7,0.0287,29.0,30.9,344,3.3,11.4,101,78.9100,4997,13.3
15min,UCC,Peter Sinks,270,11/2/2014 10:45:00,29.8,0.0435,29.1,31.1,287,3.1,10.5,133,49.5800,4979,13.2
15min,UCC,Peter Sinks,270,11/2/2014 11:00:00,30.2,0.0455,29.5,31.5,240,4.4,13.6,23,48.4300,4967,13.1
15min,UCC,Peter Sinks,270,11/2/2014 11:15:00,30.0,0.0538,29.6,30.8,226,5.5,11.2,4,35.4400,4939,13.1
15min,UCC,Peter Sinks,270,11/2/2014 11:30:00,30.6,0.0377,29.7,31.7,271,5.2,11.2,359,24.5100,4988,13.2
15min,UCC,Peter Sinks,270,11/2/2014 11:45:00,30.3,0.0359,29.5,31.1,203,6.1,16.2,4,27.8400,4928,13.1
15min,UCC,Peter Sinks,270,11/2/2014 12:00:00,30.3,0.0359,29.7,31.6,281,3.9,13.4,42,50.5300,4963,13.0
15min,UCC,Peter Sinks,270,11/2/2014 12:15:00,30.2,0.0356,29.5,31.4,280,5.8,11.4,31,31.1200,4999,13.3
15min,UCC,Peter Sinks,270,11/2/2014 12:30:00,30.1,0.0330,29.2,31.3,278,5.6,11.2,41,39.2500,4970,13.2
15min,UCC,Peter Sinks,270,11/2/2014 12:45:00,29.6,0.0311,28.7,30.8,268,5.9,14.2,25,34.7900,4949,13.1
15min,UCC,Peter Sinks,270,11/2/2014 13:00:00,28.8,0.0311,28.2,29.5,155,4.7,12.1,13,41.9500,4877,12.9
15min,UCC,Peter Sinks,270,11/2/2014 13:15:00,28.4,0.0377,28.0,29.2,202,5.3,14.2,15,51.3700,4870,12.9
15min,UCC,Peter Sinks,270,11/2/2014 13:30:00,27.8,0.0404,27.1,28.9,109,5.2,12.7,2,40.9600,4827,12.8
15min,UCC,Peter Sinks,270,11/2/2014 13:45:00,27.2,0.0486,26.7,28.0,94,3.2,8.3,11,59.8100,4797,12.6
15min,UCC,Peter Sinks,270,11/2/2014 14:00:00,27.3,0.0572,26.7,27.8,58,2.6,13.6,86,60.6700,4768,12.6
15min,UCC,Peter Sinks,270,11/2/2014 14:15:00,27.0,0.0572,26.6,27.6,43,2.9,9.2,55,81.1000,4747,12.5
15min,UCC,Peter Sinks,270,11/2/2014 14:30:00,26.3,0.0469,25.9,27.1,40,4.1,9.9,12,67.5600,4736,12.4
15min,UCC,Peter Sinks,270,11/2/2014 14:45:00,26.2,0.0660,25.9,26.8,58,2.7,9.2,56,85.1000,4733,12.5
15min,UCC,Peter Sinks,270,11/2/2014 15:00:00,25.9,0.0520,25.5,26.6,65,3.4,10.7,32,55.4900,4732,12.5
15min,UCC,Peter Sinks,270,11/2/2014 15:15:00,26.2,0.0608,25.7,26.9,77,2.7,7.2,126,51.4500,4735,12.5
15min,UCC,Peter Sinks,270,11/2/2014 15:30:00,26.2,0.0645,25.8,26.7,53,3.6,9.4,125,41.3900,4715,12.5
15min,UCC,Peter Sinks,270,11/2/2014 15:45:00,26.3,0.0608,25.9,27.0,66,5.3,11.4,140,20.8800,4716,12.4
15min,UCC,Peter Sinks,270,11/2/2014 16:00:00,26.3,0.0594,25.8,26.6,45,4.7,9.9,135,26.4000,4702,12.3
15min,UCC,Peter Sinks,270,11/2/2014 16:15:00,26.0,0.0714,25.6,26.5,29,4.7,11.4,138,26.6400,4689,12.4
15min,UCC,Peter Sinks,270,11/2/2014 16:30:00,25.9,0.0714,25.6,26.3,17,4.4,9.0,135,31.8200,4484,12.4
15min,UCC,Peter Sinks,270,11/2/2014 16:45:00,25.9,0.0768,25.6,26.2,10,4.0,9.0,133,28.7800,3334,12.4
15min,UCC,Peter Sinks,270,11/2/2014 17:00:00,25.9,0.0804,25.7,26.2,8,2.6,8.1,120,51.0000,2376,12.4
15min,UCC,Peter Sinks,270,11/2/2014 17:15:00,25.9,0.0858,25.6,26.3,4,2.9,8.5,112,57.0800,2375,12.4
15min,UCC,Peter Sinks,270,11/2/2014 17:30:00,25.5,0.0714,25.3,25.7,1,5.1,9.6,358,20.3400,2371,12.4
15min,UCC,Peter Sinks,270,11/2/2014 17:45:00,25.6,0.0751,25.4,25.8,0,3.4,8.3,85,63.0100,2369,12.4
15min,UCC,Peter Sinks,270,11/2/2014 18:00:00,25.4,0.0714,25.2,25.9,0,2.4,6.4,57,50.0700,2366,12.3
15min,UCC,Peter Sinks,270,11/2/2014 18:15:00,25.2,0.0751,25.0,25.3,-0,3.3,10.3,3,29.3100,2363,12.4
15min,UCC,Peter Sinks,270,11/2/2014 18:30:00,25.1,0.0698,25.0,25.2,-0,2.7,5.9,65,52.0900,2360,12.3
15min,UCC,Peter Sinks,270,11/2/2014 18:45:00,24.9,0.0858,24.8,25.1,-0,4.6,10.1,82,41.0200,2357,12.2
15min,UCC,Peter Sinks,270,11/2/2014 19:00:00,24.6,0.0896,24.5,24.8,-0,3.1,9.2,36,30.9700,2354,12.3
15min,UCC,Peter Sinks,270,11/2/2014 19:15:00,24.7,0.0804,24.4,24.9,-0,2.7,8.5,89,42.8900,2351,12.3
15min,UCC,Peter Sinks,270,11/2/2014 19:30:00,24.2,0.0858,24.0,24.5,-0,4.2,10.7,105,29.7200,2348,12.3
15min,UCC,Peter Sinks,270,11/2/2014 19:45:00,24.1,0.0842,23.9,24.2,-0,5.1,11.8,78,21.1400,2346,12.3
15min,UCC,Peter Sinks,270,11/2/2014 20:00:00,24.1,0.0913,24.0,24.2,-0,4.6,11.0,101,33.7900,2345,12.3
15min,UCC,Peter Sinks,270,11/2/2014 20:15:00,24.1,0.0968,23.9,24.3,-0,3.6,13.8,93,29.6900,2343,12.2
15min,UCC,Peter Sinks,270,11/2/2014 20:30:00,24.1,0.0968,23.9,24.2,-0,3.8,14.0,117,32.7400,2341,12.3
15min,UCC,Peter Sinks,270,11/2/2014 20:45:00,24.1,0.1079,24.0,24.4,-0,4.1,7.9,124,22.1800,2340,12.3
15min,UCC,Peter Sinks,270,11/2/2014 21:00:00,24.4,0.1044,24.1,24.7,-0,2.8,6.1,110,40.2700,2339,12.2
15min,UCC,Peter Sinks,270,11/2/2014 21:15:00,24.6,0.0858,24.5,24.7,-0,2.9,6.1,79,34.6800,2338,12.3
15min,UCC,Peter Sinks,270,11/2/2014 21:30:00,24.4,0.0968,24.2,24.6,-0,3.6,6.8,104,40.4800,2337,12.3
15min,UCC,Peter Sinks,270,11/2/2014 21:45:00,24.3,0.0877,24.0,24.6,-0,2.5,7.9,91,78.6200,2336,12.3
15min,UCC,Peter Sinks,270,11/2/2014 22:00:00,23.8,0.0858,23.6,24.1,-0,2.7,11.0,135,46.3300,2336,12.2
15min,UCC,Peter Sinks,270,11/2/2014 22:15:00,23.6,0.0988,23.3,23.9,-0,4.7,13.4,88,48.3900,2336,12.2
15min,UCC,Peter Sinks,270,11/2/2014 22:30:00,23.5,0.0988,23.4,23.7,-0,3.5,9.0,100,66.2800,2334,12.2
15min,UCC,Peter Sinks,270,11/2/2014 22:45:00,23.4,0.0913,23.2,23.6,-0,3.2,8.3,132,55.5600,2333,12.2
15min,UCC,Peter Sinks,270,11/2/2014 23:00:00,23.4,0.0842,23.2,23.7,-0,3.1,10.1,140,44.6200,2333,12.1
15min,UCC,Peter Sinks,270,11/2/2014 23:15:00,23.4,0.0789,23.2,23.5,-0,2.7,9.9,118,49.3700,2332,12.1
15min,UCC,Peter Sinks,270,11/2/2014 23:30:00,23.5,0.0896,23.3,23.7,-0,1.9,6.6,184,48.7500,2332,12.2
15min,UCC,Peter Sinks,270,11/2/2014 23:45:00,23.6,0.0968,23.4,23.8,-0,2.5,10.5,165,84.8000,2332,12.2
15min,UCC,Peter Sinks,270,11/3/2014 00:00:00,23.9,0.0913,23.7,24.0,-0,1.1,6.1,46,89.6000,2332,12.2
15min,UCC,Peter Sinks,270,11/3/2014 00:15:00,23.7,0.1134,23.6,24.0,-0,2.3,5.7,346,48.5200,2331,12.2
15min,UCC,Peter Sinks,270,11/3/2014 00:30:00,23.6,0.1156,23.5,23.8,-0,1.5,4.8,117,65.6100,2331,12.2
15min,UCC,Peter Sinks,270,11/3/2014 00:45:00,23.5,0.1079,23.4,23.7,-0,2.2,6.1,236,96.4000,2331,12.2
15min,UCC,Peter Sinks,270,11/3/2014 01:00:00,23.4,0.0877,23.3,23.6,-0,2.2,9.2,23,52.6800,2330,12.2
15min,UCC,Peter Sinks,270,11/3/2014 01:15:00,23.4,0.0858,23.3,23.5,-0,2.6,7.5,27,50.2400,2330,12.2
15min,UCC,Peter Sinks,270,11/3/2014 01:30:00,23.4,0.0932,23.3,23.5,-0,3.3,15.3,45,46.0200,2330,12.2
15min,UCC,Peter Sinks,270,11/3/2014 01:45:00,23.4,0.0913,23.4,23.5,-0,3.3,9.9,94,51.5600,2329,12.1
15min,UCC,Peter Sinks,270,11/3/2014 02:00:00,23.3,0.0968,23.2,23.5,-0,3.7,8.8,119,29.8700,2329,12.1
15min,UCC,Peter Sinks,270,11/3/2014 02:15:00,23.5,0.1023,23.3,23.6,-0,2.4,7.9,121,44.1600,2329,12.2
15min,UCC,Peter Sinks,270,11/3/2014 02:30:00,23.2,0.0968,23.1,23.4,-0,2.6,9.4,37,67.0500,2329,12.2
15min,UCC,Peter Sinks,270,11/3/2014 02:45:00,23.0,0.1079,22.9,23.1,-0,4.2,9.9,12,35.8700,2328,12.2
15min,UCC,Peter Sinks,270,11/3/2014 03:00:00,23.1,0.0935,22.9,23.3,-0,2.6,11.4,54,46.2800,2329,12.1
15min,UCC,Peter Sinks,270,11/3/2014 03:15:00,23.3,0.1059,23.1,23.4,-0,3.1,9.9,119,39.9500,2328,12.2
15min,UCC,Peter Sinks,270,11/3/2014 03:30:00,23.2,0.1044,23.1,23.3,-0,2.7,6.4,83,47.1400,2328,12.2
15min,UCC,Peter Sinks,270,11/3/2014 03:45:00,23.2,0.1079,23.0,23.3,-0,2.9,8.5,114,37.4500,2328,12.2
15min,UCC,Peter Sinks,270,11/3/2014 04:00:00,23.1,0.1079,22.9,23.2,-0,4.3,10.5,94,35.5800,2328,12.2
15min,UCC,Peter Sinks,270,11/3/2014 04:15:00,23.0,0.1269,22.9,23.2,-0,3.9,9.9,117,48.2900,2328,12.2
15min,UCC,Peter Sinks,270,11/3/2014 04:30:00,22.9,0.1134,22.7,23.1,-0,3.7,12.1,105,52.6100,2328,12.2
15min,UCC,Peter Sinks,270,11/3/2014 04:45:00,22.7,0.1079,22.4,23.0,-0,4.5,13.6,126,48.9600,2329,12.0
15min,UCC,Peter Sinks,270,11/3/2014 05:00:00,22.7,0.0968,22.4,22.8,-0,3.2,10.1,169,47.9200,2326,12.1
15min,UCC,Peter Sinks,270,11/3/2014 05:15:00,22.7,0.0968,22.4,22.8,-0,2.2,7.9,129,45.3700,2326,12.2
15min,UCC,Peter Sinks,270,11/3/2014 05:30:00,22.2,0.1023,21.5,22.5,-0,3.8,12.1,128,50.7200,2327,12.2
15min,UCC,Peter Sinks,270,11/3/2014 05:45:00,21.8,0.1246,21.5,22.1,-0,3.3,8.5,156,33.7700,2325,12.2
15min,UCC,Peter Sinks,270,11/3/2014 06:00:00,21.7,0.1042,21.4,21.9,-0,2.6,7.2,82,60.8300,2325,12.2
15min,UCC,Peter Sinks,270,11/3/2014 06:15:00,21.7,0.1152,21.4,21.9,-0,2.0,5.3,77,35.2900,2325,12.0
15min,UCC,Peter Sinks,270,11/3/2014 06:30:00,21.9,0.1338,21.7,22.0,-0,2.8,7.9,84,51.1000,2325,12.2
15min,UCC,Peter Sinks,270,11/3/2014 06:45:00,21.8,0.1284,21.4,22.2,0,2.8,13.4,121,70.7500,2325,12.2
15min,UCC,Peter Sinks,270,11/3/2014 07:00:00,21.9,0.1338,21.7,22.1,2,3.0,7.5,61,85.1000,2326,12.0
15min,UCC,Peter Sinks,270,11/3/2014 07:15:00,22.1,0.1134,22.0,22.2,8,3.4,9.9,62,56.0900,2807,12.0
15min,UCC,Peter Sinks,270,11/3/2014 07:30:00,22.0,0.1134,21.9,22.1,35,3.6,11.2,72,48.5500,4588,12.1
15min,UCC,Peter Sinks,270,11/3/2014 07:45:00,22.1,0.1100,21.9,22.2,48,3.6,11.8,90,57.0000,4592,12.2
15min,UCC,Peter Sinks,270,11/3/2014 08:00:00,22.2,0.1156,21.8,22.6,76,2.3,6.6,135,60.7700,4602,12.2
15min,UCC,Peter Sinks,270,11/3/2014 08:15:00,22.2,0.1044,21.9,22.9,137,4.3,12.9,125,52.4800,4599,12.2
15min,UCC,Peter Sinks,270,11/3/2014 08:30:00,22.2,0.1010,21.4,23.3,129,4.6,11.8,111,45.8000,4604,12.0
15min,UCC,Peter Sinks,270,11/3/2014 08:45:00,21.8,0.0877,21.4,23.5,171,3.9,10.5,111,64.4000,4616,12.2
15min,UCC,Peter Sinks,270,11/3/2014 09:00:00,22.5,0.0455,22.1,23.6,311,3.1,10.7,164,63.1700,4679,12.3
15min,UCC,Peter Sinks,270,11/3/2014 09:15:00,22.9,0.0377,22.2,24.3,310,2.3,7.5,191,75.2700,4750,12.5
15min,UCC,Peter Sinks,270,11/3/2014 09:30:00,23.2,0.0238,22.7,24.7,365,5.6,15.6,110,41.1300,4834,12.7
15min,UCC,Peter Sinks,270,11/3/2014 09:45:00,23.8,0.0222,22.9,24.8,409,6.3,14.9,91,22.3600,4994,13.2
15min,UCC,Peter Sinks,270,11/3/2014 10:00:00,24.6,0.0265,23.5,26.2,428,5.2,15.1,80,32.3300,5004,13.3
15min,UCC,Peter Sinks,270,11/3/2014 10:15:00,23.9,0.0216,23.2,25.0,309,6.0,17.1,127,49.6200,4978,13.2
15min,UCC,Peter Sinks,270,11/3/2014 10:30:00,24.3,0.0238,23.5,25.6,287,4.9,13.6,125,53.3100,4981,13.2
15min,UCC,Peter Sinks,270,11/3/2014 10:45:00,24.0,0.0216,23.4,24.8,297,5.5,13.2,128,41.4000,4996,13.3
15min,UCC,Peter Sinks,270,11/3/2014 11:00:00,24.7,0.0332,23.9,26.7,529,4.5,13.6,79,60.4200,5002,13.4